Tiempo cada hora 8 Marta

Hoy, 22 Junio, Martes

Tiempo Temperatura Precipitaciones Viento Presión Humedad
00:00 +20°C° 0 mm 2 mps 746 mmHg 87%
01:00 +20°C° 0 mm 2 mps 746 mmHg 87%
02:00 +20°C° 0 mm 2 mps 746 mmHg 87%
03:00 +19°C° 0 mm 2 mps 746 mmHg 87%
04:00 +20°C° 0 mm 2 mps 746 mmHg 87%
05:00 +20°C° 0 mm 2 mps 746 mmHg 86%
06:00 +21°C° 0 mm 2 mps 746 mmHg 85%
07:00 +24°C° 0 mm 2 mps 746 mmHg 80%
08:00 +25°C° 0 mm 2 mps 746 mmHg 75%
09:00 +27°C° 0 mm 3 mps 747 mmHg 70%
10:00 +28°C° 0 mm 3 mps 747 mmHg 66%
11:00 +29°C° 0 mm 2 mps 747 mmHg 62%
12:00 +30°C° 0 mm 2 mps 747 mmHg 58%
13:00 +30°C° 0 mm 2 mps 747 mmHg 55%
14:00 +31°C° 0 mm 2 mps 746 mmHg 53%
15:00 +31°C° 0 mm 2 mps 746 mmHg 50%
16:00 +31°C° 0 mm 2 mps 746 mmHg 54%
17:00 +31°C° 0 mm 2 mps 746 mmHg 59%
18:00 +31°C° 0 mm 2 mps 746 mmHg 63%
19:00 +29°C° 0 mm 2 mps 746 mmHg 67%
20:00 +27°C° 0 mm 2 mps 746 mmHg 71%
21:00 +25°C° 0 mm 2 mps 746 mmHg 76%
22:00 +24°C° 0 mm 2 mps 746 mmHg 75%
23:00 +23°C° 0 mm 2 mps 746 mmHg 75%

Mañana, 23 Junio, Miércoles

Tiempo Temperatura Precipitaciones Viento Presión Humedad
00:00 +23°C° 0 mm 2 mps 746 mmHg 74%
01:00 +21°C° 0 mm 2 mps 746 mmHg 75%
02:00 +21°C° 0 mm 2 mps 746 mmHg 77%
03:00 +20°C° 0 mm 2 mps 746 mmHg 78%
04:00 +21°C° 0 mm 2 mps 746 mmHg 78%
05:00 +21°C° 0 mm 2 mps 746 mmHg 79%
06:00 +23°C° 0 mm 2 mps 747 mmHg 79%
07:00 +24°C° 0 mm 2 mps 747 mmHg 75%
08:00 +26°C° 0 mm 2 mps 747 mmHg 71%
09:00 +27°C° 0 mm 2 mps 747 mmHg 67%
10:00 +28°C° 0 mm 2 mps 747 mmHg 64%
11:00 +29°C° 0 mm 3 mps 747 mmHg 61%
12:00 +30°C° 0 mm 3 mps 747 mmHg 59%
13:00 +31°C° 0 mm 3 mps 747 mmHg 56%
14:00 +31°C° 0 mm 2 mps 747 mmHg 54%
15:00 +32°C° 0 mm 2 mps 747 mmHg 51%
16:00 +31°C° 0 mm 2 mps 746 mmHg 56%
17:00 +31°C° 0 mm 2 mps 746 mmHg 60%
18:00 +31°C° 0 mm 2 mps 746 mmHg 65%
19:00 +29°C° 0 mm 2 mps 746 mmHg 69%
20:00 +27°C° 0 mm 1 mps 746 mmHg 74%
21:00 +25°C° 0 mm 1 mps 746 mmHg 78%
22:00 +25°C° 0 mm 1 mps 746 mmHg 79%
23:00 +24°C° 0 mm 1 mps 746 mmHg 80%

Pasado mañana, 24 Junio, Jueves

Tiempo Temperatura Precipitaciones Viento Presión Humedad
00:00 +23°C° 0 mm 1 mps 746 mmHg 81%
01:00 +23°C° 0 mm 1 mps 746 mmHg 82%
02:00 +23°C° 0 mm 1 mps 746 mmHg 83%
03:00 +22°C° 0 mm 1 mps 746 mmHg 84%
04:00 +23°C° 0 mm 1 mps 746 mmHg 83%
05:00 +23°C° 0 mm 1 mps 746 mmHg 83%
06:00 +22°C° 0 mm 0 mps 746 mmHg 82%
07:00 +26°C° 0 mm 1 mps 746 mmHg 77%
08:00 +27°C° 0 mm 1 mps 746 mmHg 72%
09:00 +28°C° 0 mm 1 mps 746 mmHg 67%
10:00 +29°C° 0 mm 1 mps 746 mmHg 63%
11:00 +30°C° 0 mm 1 mps 746 mmHg 59%
12:00 +31°C° 0 mm 1 mps 746 mmHg 55%
13:00 +31°C° 0 mm 1 mps 746 mmHg 54%
14:00 +32°C° 0 mm 1 mps 746 mmHg 53%
15:00 +32°C° 0 mm 1 mps 746 mmHg 52%
16:00 +32°C° 0 mm 1 mps 746 mmHg 54%
17:00 +32°C° 0 mm 1 mps 745 mmHg 56%
18:00 +30°C° 0 mm 0 mps 745 mmHg 58%
19:00 +28°C° 0 mm 0 mps 745 mmHg 62%
20:00 +28°C° 0 mm 1 mps 745 mmHg 67%
21:00 +26°C° 0 mm 1 mps 745 mmHg 71%
22:00 +26°C° 0 mm 1 mps 745 mmHg 74%
23:00 +25°C° 0 mm 1 mps 745 mmHg 76%

25 Junio, Viernes

Tiempo Temperatura Precipitaciones Viento Presión Humedad
00:00 +24°C° 0 mm 1 mps 745 mmHg 79%
01:00 +24°C° 0.1 mm 1 mps 745 mmHg 80%
02:00 +21°C° 0.1 mm 0 mps 745 mmHg 82%
03:00 +21°C° 0.1 mm 0 mps 745 mmHg 83%
04:00 +22°C° 0.1 mm 0 mps 745 mmHg 82%
05:00 +22°C° 0.1 mm 0 mps 745 mmHg 82%
06:00 +23°C° 0.1 mm 0 mps 745 mmHg 81%
07:00 +24°C° 0 mm 0 mps 745 mmHg 77%
08:00 +27°C° 0 mm 1 mps 744 mmHg 73%
09:00 +29°C° 0 mm 1 mps 744 mmHg 69%
10:00 +30°C° 0.4 mm 1 mps 744 mmHg 63%
11:00 +31°C° 0.4 mm 1 mps 744 mmHg 57%
12:00 +31°C° 0.4 mm 1 mps 745 mmHg 52%
13:00 +32°C° 0 mm 1 mps 744 mmHg 51%
14:00 +32°C° 0 mm 1 mps 744 mmHg 50%
15:00 +32°C° 0 mm 1 mps 744 mmHg 49%
16:00 +32°C° 0 mm 1 mps 744 mmHg 53%
17:00 +31°C° 0 mm 1 mps 743 mmHg 58%
18:00 +31°C° 0 mm 1 mps 743 mmHg 62%
19:00 +29°C° 0 mm 1 mps 743 mmHg 65%
20:00 +28°C° 0 mm 1 mps 742 mmHg 68%
21:00 +26°C° 0 mm 1 mps 742 mmHg 71%
22:00 +26°C° 0 mm 1 mps 742 mmHg 72%
23:00 +25°C° 0 mm 1 mps 742 mmHg 73%

26 Junio, Sábado

Tiempo Temperatura Precipitaciones Viento Presión Humedad
00:00 +25°C° 0 mm 1 mps 742 mmHg 74%
01:00 +24°C° 0 mm 1 mps 742 mmHg 76%
02:00 +24°C° 0 mm 1 mps 742 mmHg 78%
03:00 +23°C° 0 mm 1 mps 742 mmHg 81%
04:00 +24°C° 0 mm 1 mps 742 mmHg 81%
05:00 +24°C° 0 mm 1 mps 742 mmHg 81%
06:00 +25°C° 0 mm 1 mps 742 mmHg 80%
07:00 +26°C° 0 mm 1 mps 742 mmHg 76%
08:00 +27°C° 0 mm 1 mps 742 mmHg 71%
09:00 +29°C° 0 mm 1 mps 742 mmHg 67%
10:00 +30°C° 0.1 mm 1 mps 742 mmHg 63%
11:00 +30°C° 0.1 mm 1 mps 742 mmHg 59%
12:00 +31°C° 0.1 mm 2 mps 742 mmHg 56%
13:00 +32°C° 0 mm 2 mps 742 mmHg 54%
14:00 +32°C° 0 mm 1 mps 742 mmHg 52%
15:00 +32°C° 0 mm 1 mps 742 mmHg 50%
16:00 +32°C° 0.1 mm 1 mps 742 mmHg 54%
17:00 +32°C° 0.1 mm 2 mps 741 mmHg 58%
18:00 +31°C° 0.1 mm 2 mps 741 mmHg 62%
19:00 +29°C° 0.1 mm 2 mps 741 mmHg 65%
20:00 +27°C° 0.1 mm 1 mps 741 mmHg 68%
21:00 +24°C° 0.1 mm 1 mps 741 mmHg 72%
22:00 +24°C° 0.1 mm 1 mps 741 mmHg 75%
23:00 +23°C° 0.1 mm 1 mps 741 mmHg 79%

27 Junio, Domingo

Tiempo Temperatura Precipitaciones Viento Presión Humedad
00:00 +23°C° 0.1 mm 1 mps 741 mmHg 82%
01:00 +22°C° 0.5 mm 1 mps 741 mmHg 84%
02:00 +22°C° 0.5 mm 1 mps 741 mmHg 86%
03:00 +22°C° 0.5 mm 1 mps 741 mmHg 87%
04:00 +22°C° 0.2 mm 1 mps 741 mmHg 87%
05:00 +23°C° 0.2 mm 1 mps 741 mmHg 87%
06:00 +24°C° 0.2 mm 1 mps 741 mmHg 87%
07:00 +25°C° 0 mm 1 mps 741 mmHg 82%
08:00 +26°C° 0 mm 1 mps 741 mmHg 77%
09:00 +28°C° 0 mm 1 mps 741 mmHg 73%
10:00 +29°C° 0.7 mm 1 mps 741 mmHg 68%
11:00 +30°C° 0.7 mm 1 mps 742 mmHg 63%
12:00 +31°C° 0.7 mm 1 mps 742 mmHg 58%
13:00 +31°C° 0 mm 1 mps 742 mmHg 57%
14:00 +31°C° 0 mm 1 mps 741 mmHg 56%
15:00 +29°C° 0 mm 0 mps 741 mmHg 54%
16:00 +29°C° 0 mm 0 mps 741 mmHg 56%
17:00 +31°C° 0 mm 1 mps 741 mmHg 59%
18:00 +31°C° 0 mm 1 mps 741 mmHg 61%
19:00 +29°C° 0.1 mm 1 mps 740 mmHg 66%
20:00 +28°C° 0.1 mm 1 mps 740 mmHg 71%
21:00 +26°C° 0.1 mm 1 mps 740 mmHg 76%
22:00 +25°C° 1 mm 2 mps 740 mmHg 81%
23:00 +24°C° 1 mm 2 mps 740 mmHg 86%
Mostrar más

Necesitamos Su Consentimiento

Meteoprog y nuestros Proveedores de Servicios pueden almacenar y acceder a sus datos personales como cookies, identificadores de dispositivo u otras tecnologías similares de su dispositivo y procesar dichos datos para personalizar contenido y anuncios, además de ofrecer funciones de redes sociales y analizar el tráfico.

  • Almacenar y/o acceder a información en su dispositivo

    Se puede almacenar o acceder a cookies, identificadores de dispositivo u otra información de su dispositivo para los fines anteriormente indicados.

  • Anuncios y contenido personalizados, medición de anuncios y contenido, percepciones del público, y desarrollo de productos

    Los anuncios y el contenido pueden personalizarse en base a su perfil. Se pueden añadir más datos para personalizar mejor los anuncios y contenidos. Se puede medir el rendimiento de los anuncios y contenidos. Se puede obtener la percepción sobre el público que ha visto los anuncios y contenidos. Dichos datos pueden usarse para desarrollar o mejorar la experiencia del usuario, sistemas y software.

Al hacer clic en ‘Estoy De Acuerdo’ usted permitirá el uso de las cookies, identificadores de dispositivo, balizas web u otras tecnologías similares indicadas. Su configuración puede cambiarse desde el navegador de su dispositivo.

Para ciertos fines, los intereses legítimos pueden ser considerados por encima del consentimiento. Puede leer más sobre ello en nuestra Política de Privacidad y Cookies.